Télécharger nos applis :
Heure Condition Température Humidité Direction Vent Pression (QNH)
06:00 13 °C 89 % 3 km/h 1014 hPa
09:00 15 °C 79 % 3 km/h 1014 hPa
12:00 17 °C 64 % 3 km/h 1013 hPa
15:00 15 °C 88 % 2 km/h 1013 hPa
18:00 14 °C 95 % 0 km/h 1013 hPa
21:00 14 °C 93 % 1 km/h 1013 hPa
Dimanche 21 mai 2023
00:00 13 °C 92 % 1 km/h 1012 hPa
03:00 13 °C 93 % 2 km/h 1012 hPa
06:00 13 °C 95 % 2 km/h 1013 hPa
09:00 14 °C 93 % 2 km/h 1014 hPa
12:00 14 °C 92 % 2 km/h 1014 hPa
15:00 20 °C 64 % 2 km/h 1012 hPa
18:00 18 °C 76 % 2 km/h 1012 hPa
21:00 15 °C 89 % 3 km/h 1014 hPa
Lundi 22 mai 2023
00:00 14 °C 94 % 2 km/h 1013 hPa
03:00 14 °C 95 % 2 km/h 1013 hPa
06:00 15 °C 89 % 2 km/h 1013 hPa
09:00 22 °C 58 % 1 km/h 1013 hPa
12:00 24 °C 57 % 1 km/h 1013 hPa
15:00 24 °C 56 % 2 km/h 1013 hPa
18:00 17 °C 91 % 2 km/h 1014 hPa
21:00 16 °C 96 % 2 km/h 1016 hPa
Mardi 23 mai 2023
00:00 16 °C 95 % 3 km/h 1015 hPa
03:00 15 °C 95 % 2 km/h 1015 hPa
06:00 16 °C 91 % 2 km/h 1015 hPa
09:00 22 °C 64 % 2 km/h 1015 hPa
12:00 24 °C 57 % 1 km/h 1014 hPa
15:00 23 °C 67 % 2 km/h 1013 hPa
18:00 20 °C 83 % 2 km/h 1014 hPa
21:00 16 °C 94 % 3 km/h 1015 hPa
Mercredi 24 mai 2023
00:00 15 °C 95 % 2 km/h 1015 hPa
03:00 14 °C 94 % 3 km/h 1015 hPa
06:00 15 °C 87 % 2 km/h 1016 hPa
09:00 21 °C 57 % 2 km/h 1015 hPa
12:00 26 °C 45 % 1 km/h 1014 hPa
15:00 22 °C 68 % 1 km/h 1014 hPa
18:00 21 °C 79 % 0 km/h 1014 hPa
21:00 17 °C 88 % 1 km/h 1016 hPa
Jeudi 25 mai 2023
00:00 16 °C 91 % 2 km/h 1016 hPa
03:00 15 °C 93 % 2 km/h 1016 hPa